Here is the Quick Look data you requested

The Data originates at the National Weather Service, and is made available here by the UAlbany Department of Atmospheric and Environmental Sciences

Surface Observations

PAKU 231846Z 01005KT 7SM R06/P6000FT OVC018 M01/M01 A2987=